weather.gov     
National Weather Service

Terminal Aerodrome Forecast
NWS Homepage
This page is being discontinued on March 12, 2014.
The same data is available at this site. Please update your bookmarks.
Thank you, and we apologize for the inconvenience.
Please send an email to SR-SRH.Webmaster@noaa.gov with any concerns.


Current Version
Previous Version:    01  02  03  04  05  06  07  08  09  10  11  12  13  14  
[Printable]
105
FTUS41 KBOX 231732
TAFBDL
TAF
KBDL 231732Z 2318/2424 32012G20KT 6SM -SHRA OVC050
     FM232100 32014G24KT P6SM OVC050
     FM240400 31013G28KT P6SM SCT250=




105
FTUS41 KBOX 231732
TAFBDL
TAF
KBDL 231732Z 2318/2424 32012G20KT 6SM -SHRA OVC050
     FM232100 32014G24KT P6SM OVC050
     FM240400 31013G28KT P6SM SCT250=


U.S. Dept. of Commerce
NOAA National Weather Service
1325 East West Highway
Silver Spring, MD 20910
E-mail: w-nws.webmaster@noaa.gov
Page last modified: May 16, 2007
NATIONAL WEATHER SERVICE: for Safety, for Work, for Fun - FOR LIFE